Weather History for Williamtown, NW

Change the Weather History Date:

Friday, June 28, 2013

  Actual Average Record
Temperature  
Mean Temperature 58 °F -  
Max Temperature 64 °F - - ()
Min Temperature 51 °F - - ()
Degree Days  
Heating Degree Days 8    
Growing Degree Days 8 (Base 50)    
Moisture  
Dew Point 54 °F    
Average Humidity 96    
Maximum Humidity 100    
Minimum Humidity 67    
Precipitation  
Precipitation 0.47 in - - ()
Sea Level Pressure  
Sea Level Pressure 30.19 in    
Wind  
Wind Speed 4 mph ()    
Max Wind Speed 15 mph    
Max Gust Speed -    
Visibility 4.9 miles    
Events Fog , Rain    
T = Trace of Precipitation, MM = Missing Value Source: Averaged Metar Reports

Daily Weather History Graph

Daily Weather History Graph

Search for Another Location

Airport:

Trip Planner

Search our weather history database for the weather conditions in past years. The results will help you decide how hot, cold, wet, or windy it might be!

Date:

Astronomy

Jun. 28, 2013 Rise Set
Actual Time 6:55 AM AEST 4:56 PM AEST
Civil Twilight 6:28 AM AEST 5:23 PM AEST
Nautical Twilight 5:57 AM AEST 5:54 PM AEST
Astronomical Twilight 5:27 AM AEST 6:24 PM AEST
Moon 10:25 PM AEST (6/28) 10:12 AM AEST (6/28)
Length of Visible Light 10h 54m
Length of Day
10h 00m
Waning Gibbous, 72% of the Moon is Illuminated
Jun 28
Waning Gibbous
Jun 30
Last Quarter
Jul 8
New
Jul 16
First Quarter
Jul 23
Full

Hourly Weather History & Observations

Time (AEST) Temp. Dew Point Humidity Pressure Visibility Wind Dir Wind Speed Gust Speed Precip Events Conditions
12:00 AM 52 °F 52 °F 100% 30.17 in 4 mi NW 5.8 mph - -  
12:00 AM 51.8 °F 51.8 °F 100% 30.15 in 3.7 mi NW 5.8 mph - N/A   Scattered Clouds
12:30 AM 53.6 °F 53.6 °F 100% 30.15 in - WNW 1.2 mph - N/A   Scattered Clouds
1:00 AM 54 °F 53 °F 97% 30.17 in - Calm Calm - -  
1:00 AM 53.6 °F 53.6 °F 100% 30.15 in 3.7 mi Calm Calm - N/A Rain Light Rain Showers
1:30 AM 53.6 °F 53.6 °F 100% 30.15 in 3.1 mi WNW 4.6 mph - N/A   Mostly Cloudy
2:00 AM 53.6 °F 53.6 °F 100% 30.15 in - Calm Calm - N/A   Overcast
2:30 AM 53.6 °F 53.6 °F 100% 30.15 in 3.7 mi NW 3.5 mph - N/A   Overcast
2:45 AM 53.6 °F 53.6 °F 100% 30.15 in 5.0 mi NW 4.6 mph - N/A   Mostly Cloudy
2:51 AM 53.6 °F 53.6 °F 100% 30.15 in 3.7 mi NW 4.6 mph - N/A   Mostly Cloudy
3:00 AM 53 °F 53 °F 99% 30.17 in 3 mi WNW 3.5 mph - -   Overcast
3:00 AM 53.6 °F 53.6 °F 100% 30.15 in 3.1 mi WNW 3.5 mph - N/A   Mostly Cloudy
3:28 AM 53.6 °F 53.6 °F 100% 30.15 in 5.0 mi NW 5.8 mph - N/A   Overcast
3:30 AM 53.6 °F 53.6 °F 100% 30.15 in 5.0 mi NW 5.8 mph - N/A   Overcast
4:00 AM 53 °F 53 °F 99% 30.17 in - NNW 3.5 mph - -  
4:00 AM 53.6 °F 53.6 °F 100% 30.15 in 4.3 mi NNW 3.5 mph - N/A   Haze
4:16 AM 53.6 °F 53.6 °F 100% 30.15 in 2.5 mi Calm Calm - N/A   Haze
4:23 AM 53.6 °F 53.6 °F 100% 30.15 in 0.5 mi Calm Calm - N/A   Unknown
4:30 AM 51.8 °F 51.8 °F 100% 30.15 in 4.3 mi Calm Calm - N/A Fog Patches of Fog
5:00 AM 51.8 °F 51.8 °F 100% 30.15 in 3.1 mi West 3.5 mph - N/A Fog Shallow Fog
5:30 AM 53.6 °F 51.8 °F 94% 30.15 in 4.3 mi NW 4.6 mph - N/A   Mostly Cloudy
6:00 AM 51 °F 51 °F 100% 30.18 in 2 mi NW 4.6 mph - -  
6:00 AM 51.8 °F 51.8 °F 100% 30.15 in 6.2 mi NW 4.6 mph - N/A   Scattered Clouds
6:30 AM 51.8 °F 51.8 °F 100% 30.18 in 6.2 mi NW 5.8 mph - N/A   Mostly Cloudy
7:00 AM 52 °F 52 °F 98% 30.19 in - NNW 4.6 mph - -  
7:00 AM 51.8 °F 51.8 °F 100% 30.18 in 6.2 mi NNW 4.6 mph - N/A   Mostly Cloudy
7:30 AM 51.8 °F 51.8 °F 100% 30.18 in 6.2 mi NW 4.6 mph - N/A   Mostly Cloudy
8:00 AM 53.6 °F 53.6 °F 100% 30.18 in 6.2 mi NW 4.6 mph - N/A   Mostly Cloudy
8:30 AM 55.4 °F 55.4 °F 100% 30.21 in 6.2 mi WNW 5.8 mph - N/A   Mostly Cloudy
9:00 AM 56 °F 56 °F 98% 30.22 in - WNW 6.9 mph - -  
9:00 AM 57.2 °F 55.4 °F 94% 30.21 in 6.2 mi WNW 6.9 mph - N/A   Mostly Cloudy
9:30 AM 59.0 °F 57.2 °F 94% 30.21 in 6.2 mi West 5.8 mph - N/A   Mostly Cloudy
10:00 AM 59 °F 57 °F 92% 30.22 in - NW 2.3 mph - -  
10:00 AM 59.0 °F 57.2 °F 94% 30.21 in 6.2 mi NW 2.3 mph - N/A   Mostly Cloudy
10:21 AM 60.8 °F 57.2 °F 88% 30.21 in 6.2 mi WSW 6.9 mph - N/A   Mostly Cloudy
10:30 AM 60.8 °F 57.2 °F 88% 30.21 in 6.2 mi SW 5.8 mph - N/A   Overcast
11:00 AM 60.8 °F 57.2 °F 88% 30.21 in 6.2 mi SSW 5.8 mph - N/A   Mostly Cloudy
11:30 AM 64.4 °F 57.2 °F 77% 30.18 in 6.2 mi SSW 5.8 mph - N/A   Scattered Clouds
12:00 PM 64 °F 56 °F 67% 30.20 in - SW 4.6 mph - -   Overcast
12:00 PM 64.4 °F 55.4 °F 73% 30.18 in 6.2 mi SW 4.6 mph - N/A   Mostly Cloudy
12:30 PM 62.6 °F 55.4 °F 77% 30.18 in 6.2 mi SSE 8.1 mph - N/A Rain Light Rain Showers
1:00 PM 60 °F 56 °F 83% 30.19 in - SE 8.1 mph - -  
1:00 PM 60.8 °F 55.4 °F 82% 30.18 in 5.0 mi SE 8.1 mph - N/A Rain Rain Showers
1:08 PM 59.0 °F 55.4 °F 88% 30.18 in 3.7 mi ESE 11.5 mph - N/A Rain Rain Showers
1:30 PM 57.2 °F 55.4 °F 94% 30.18 in 3.7 mi ESE 15.0 mph - N/A Rain Rain Showers
1:46 PM 57.2 °F 55.4 °F 94% 30.18 in 5.0 mi ENE 9.2 mph - N/A Rain Rain Showers
1:55 PM 57.2 °F 55.4 °F 94% 30.18 in 3.7 mi ENE 8.1 mph - N/A Rain Rain Showers
2:00 PM 57.2 °F 55.4 °F 94% 30.15 in 3.1 mi NE 8.1 mph - N/A Rain Rain Showers
2:30 PM 57.2 °F 55.4 °F 94% 30.15 in 4.3 mi North 2.3 mph - N/A Rain Rain Showers
2:41 PM 57.2 °F 55.4 °F 94% 30.18 in 6.2 mi WNW 4.6 mph - N/A Rain Rain
3:00 PM 57 °F 55 °F 92% 30.19 in - West 4.6 mph - -   Overcast
3:00 PM 57.2 °F 55.4 °F 94% 30.18 in 6.2 mi West 4.6 mph - N/A Rain Light Rain
3:30 PM 57.2 °F 55.4 °F 94% 30.18 in 6.2 mi WSW 4.6 mph - N/A Rain Light Rain
3:45 PM 57.2 °F 55.4 °F 94% 30.18 in 3.7 mi SW 3.5 mph - N/A   Overcast
3:57 PM 57.2 °F 55.4 °F 94% 30.18 in 6.2 mi SW 3.5 mph - N/A   Overcast
4:00 PM 57 °F 56 °F 94% 30.19 in - SW 3.5 mph - -  
4:00 PM 57.2 °F 55.4 °F 94% 30.18 in 6.2 mi SW 3.5 mph - N/A   Overcast
4:30 PM 57.2 °F 55.4 °F 94% 30.18 in 6.2 mi WSW 4.6 mph - N/A   Drizzle
5:00 PM 55.4 °F 55.4 °F 100% 30.18 in 6.2 mi SSW 3.5 mph - N/A Rain Light Rain
5:30 PM 55.4 °F 55.4 °F 100% 30.18 in 6.2 mi South 4.6 mph - N/A Rain Light Rain
6:00 PM 56 °F 55 °F 94% 30.22 in - SSE 1.2 mph - -   Overcast
6:00 PM 55.4 °F 55.4 °F 100% 30.21 in 6.2 mi SSE 1.2 mph - N/A   Drizzle
6:30 PM 55.4 °F 55.4 °F 100% 30.21 in 6.2 mi Calm Calm - N/A   Drizzle
7:00 PM 55 °F 54 °F 98% 30.22 in - Calm Calm - -  
7:00 PM 55.4 °F 55.4 °F 100% 30.21 in 6.2 mi Calm Calm - N/A Rain Light Rain
7:27 PM 55.4 °F 53.6 °F 94% 30.21 in 3.1 mi Calm Calm - N/A   Scattered Clouds
7:30 PM 55.4 °F 53.6 °F 94% 30.21 in 0.9 mi Calm Calm - N/A   Scattered Clouds
7:32 PM 53.6 °F 53.6 °F 100% 30.21 in 0.5 mi Calm Calm - N/A   Scattered Clouds
8:00 PM 53.6 °F 53.6 °F 100% 30.21 in 6.2 mi Calm Calm - N/A   Overcast
8:02 PM 53.6 °F 53.6 °F 100% 30.21 in 6.2 mi Calm Calm - N/A   Overcast
8:03 PM 53.6 °F 53.6 °F 100% 30.21 in 6.2 mi Calm Calm - N/A   Overcast
8:30 PM 53.6 °F 53.6 °F 100% 30.21 in 6.2 mi Calm Calm - N/A   Light Drizzle
9:00 PM 54 °F 54 °F 99% 30.24 in - Calm Calm - -   Overcast
9:00 PM 53.6 °F 53.6 °F 100% 30.21 in 6.2 mi Calm Calm - N/A Rain Light Rain Showers
9:30 PM 53.6 °F 53.6 °F 100% 30.24 in 6.2 mi WSW 2.3 mph - N/A Rain Light Rain Showers
10:00 PM 55 °F 54 °F 95% 30.24 in - West 4.6 mph - -  
10:00 PM 55.4 °F 53.6 °F 94% 30.21 in 6.2 mi West 4.6 mph - N/A Rain Light Rain
10:30 PM 55.4 °F 53.6 °F 94% 30.24 in 6.2 mi West 3.5 mph - N/A Rain Light Rain
11:00 PM 55.4 °F 53.6 °F 94% 30.21 in 5.0 mi Calm Calm - N/A Rain Light Rain Showers
11:07 PM 55.4 °F 55.4 °F 100% 30.21 in 3.7 mi Calm Calm - N/A Rain Light Rain Showers
11:30 PM 55.4 °F 53.6 °F 94% 30.21 in 4.3 mi WSW 4.6 mph - N/A Rain Light Rain
11:35 PM 55.4 °F 55.4 °F 100% 30.21 in 4.3 mi WSW 4.6 mph - N/A Rain Rain